Flag for Canada Weather past 2 weeks in Regina, Saskatchewan, Canada

Now
55 °F

Passing clouds.


Feels Like: 54 °F
Forecast: 49 / 63 °F
Wind: 6 mph from Northeast

Location: Regina Weather Station

Current Time: Sep 3, 2014 at 1:54:44 AM

Latest Report: Sep 3, 2014 at 1:00 AM


Visibility: 15 mi

Pressure: 29.76 "Hg

Humidity: 88%

Dew point: 52 °F

Location of ReginaLocation

Historic Weather in Regina — Graph

°F

Regina temperature yesterday

Maximum temperature yesterday: 68 °F (at 3:00 PM)
Minimum temperature yesterday: 46 °F (at 7:00 AM)
Average temperature yesterday: 59 °F

Past Weeks' High & Low Weather Summary

 TemperatureHumidityPressure
High86 °F (Aug 19, 3:00 PM)100% (Aug 19, 5:00 AM)30.25 "Hg (Aug 19, 5:00 AM)
Low41 °F (Aug 26, 4:00 AM)39% (Aug 27, 1:00 PM)29.58 "Hg (Aug 20, 4:00 AM)
Average60 °F77%29.91 "Hg
* Reported Midnight between Aug 18 and Aug 19 — Midnight between Sep 2 and Sep 3, Regina, Weather by CustomWeather, © 2014

Note: Actual official high and low records may vary slightly from our data, if they occured in-between our weather recording intervals... More about our weather records

Advertising

Regina weather history for previous 24 hours

 ConditionsComfort  
Time TempWeatherWind HumidityBarometerVisibility
12:00 AM
Sep 3
55 °FSprinkles. Passing clouds.6 mph88%29.76 "Hg15 mi
11:00 PM
Sep 2
59 °FSprinkles. Overcast.2 mph72%29.73 "Hg15 mi
10:00 PM59 °FSprinkles. Overcast.6 mph72%29.73 "Hg15 mi
9:00 PM61 °FPassing clouds.7 mph63%29.74 "Hg15 mi
8:00 PM61 °FPassing clouds.7 mph68%29.74 "Hg15 mi
7:00 PM63 °FPartly sunny.3 mph64%29.75 "Hg15 mi
6:00 PM64 °FPartly sunny.7 mph56%29.75 "Hg15 mi
5:00 PM68 °FScattered clouds.13 mph46%29.75 "Hg15 mi
4:00 PM68 °FScattered clouds.14 mph49%29.76 "Hg15 mi
3:00 PM68 °FScattered clouds.13 mph49%29.76 "Hg15 mi
2:00 PM66 °FScattered clouds.9 mph60%29.77 "Hg15 mi
1:00 PM64 °FScattered clouds.14 mph60%29.77 "Hg15 mi
12:00 PM64 °FPassing clouds.13 mph60%29.76 "Hg15 mi
11:00 AM64 °FPassing clouds.12 mph60%29.76 "Hg15 mi
10:00 AM61 °FPassing clouds.8 mph68%29.76 "Hg15 mi
9:00 AM59 °FPassing clouds.5 mph72%29.76 "Hg15 mi
8:00 AM54 °FPassing clouds.6 mph82%29.75 "Hg15 mi
7:00 AM46 °FBroken clouds.2 mph93%29.74 "Hg15 mi
6:00 AM48 °FPassing clouds.No wind94%29.72 "Hg15 mi
5:00 AM48 °FPassing clouds.5 mph94%29.72 "Hg15 mi
4:00 AM48 °FPassing clouds.7 mph87%29.72 "Hg15 mi
3:00 AM50 °FClear.7 mph82%29.73 "Hg15 mi
2:00 AM52 °FClear.9 mph82%29.73 "Hg15 mi
1:00 AM55 °FPassing clouds.3 mph72%29.75 "Hg15 mi
Weather by CustomWeather, © 2014

See weather overviewHow to use our weather pages